Weather History for CYXH - February, 2013

Change the Weather History Date:

Thursday, February 7, 2013

  Actual Average Record
Temperature  
Mean Temperature 3 °F -  
Max Temperature 37 °F 32 °F 48 °F (2000)
Min Temperature -31 °F 11 °F -31 °F (2013)
Degree Days  
Heating Degree Days 62    
Moisture  
Dew Point 16 °F    
Average Humidity 79    
Maximum Humidity 100    
Minimum Humidity 53    
Precipitation  
Precipitation 0.00 in 0.02 in - ()
Sea Level Pressure  
Sea Level Pressure 29.96 in    
Wind  
Wind Speed 5 mph ()    
Max Wind Speed 14 mph    
Max Gust Speed -    
Visibility 8.7 miles    
Events      
Averages and records for this station are not official NWS values.
T = Trace of Precipitation, MM = Missing Value Source: Averaged Metar Reports

Daily Weather History Graph

Daily Weather History Graph

Search for Another Location

Airport or City:

Trip Planner

Search our weather history database for the weather conditions in past years. The results will help you decide how hot, cold, wet, or windy it might be!

Date:

Astronomy

Feb. 07, 2013 Rise Set
Actual Time 7:46 AM MST 5:28 PM MST
Civil Twilight 7:12 AM MST 6:02 PM MST
Nautical Twilight 6:34 AM MST 6:40 PM MST
Astronomical Twilight 5:56 AM MST 7:18 PM MST
Moon 5:38 AM MST (2/7) 2:48 PM MST (2/7)
Length of Visible Light 10h 49m
Length of Day
9h 41m
Waning Crescent, 8% of the Moon is Illuminated
Feb 7
Waning Crescent
Feb 10
New
Feb 17
First Quarter
Feb 25
Full
Mar 4
Last Quarter

Hourly Weather History & Observations

Time (MST) Temp. Windchill Dew Point Humidity Pressure Visibility Wind Dir Wind Speed Gust Speed Precip Events Conditions
12:00 AM 21.2 °F - 21.2 °F 100% 30.03 in 4.0 mi NE 2.3 mph - N/A   Clear
1:00 AM 21.2 °F - 21.2 °F 100% 30.02 in 4.0 mi ENE 2.3 mph - N/A   Clear
2:00 AM 21.2 °F - 21.2 °F 100% 30.02 in 4.0 mi Calm Calm - N/A   Clear
3:00 AM 19.4 °F - 19.4 °F 100% 30.03 in 5.0 mi Calm Calm - N/A   Clear
3:32 AM 21.2 °F - 21.2 °F 100% 30.02 in 6.0 mi Variable 2.3 mph - N/A   Clear
4:00 AM 23.0 °F 14.7 °F 21.2 °F 93% 30.01 in 9.0 mi SSW 6.9 mph - N/A   Scattered Clouds
5:00 AM -27 °F - -32 °F 61% 29.83 in - North 1.2 mph - -  
6:00 AM 23.0 °F 17.0 °F 21.2 °F 93% 30.01 in 15.0 mi SSW 4.6 mph - N/A   Clear
7:00 AM 23.0 °F 15.8 °F 21.2 °F 93% 30.01 in 30.0 mi SSW 5.8 mph - N/A   Partly Cloudy
8:00 AM 24.8 °F 16.9 °F 21.2 °F 86% 30.02 in 30.0 mi SSW 6.9 mph - N/A   Mostly Cloudy
9:00 AM 26.6 °F 19.1 °F 23.0 °F 86% 30.01 in 30.0 mi SSW 6.9 mph - N/A   Mostly Cloudy
10:00 AM 28.4 °F - 24.8 °F 86% 30.00 in 30.0 mi Calm Calm - N/A   Mostly Cloudy
11:00 AM -28 °F - -34 °F 58% 29.84 in - South 12.7 mph - -  
11:00 AM 32.0 °F 28.7 °F 28.4 °F 87% 29.99 in 30.0 mi South 3.5 mph - N/A   Mostly Cloudy
12:00 PM 33.8 °F 30.8 °F 28.4 °F 81% 29.98 in 30.0 mi WSW 3.5 mph - N/A   Mostly Cloudy
1:00 PM 41.0 °F 34.3 °F 24.8 °F 53% 29.96 in 30.0 mi SSW 11.5 mph - N/A   Mostly Cloudy
2:00 PM 41.0 °F 34.3 °F 26.6 °F 57% 29.93 in 30.0 mi SSW 11.5 mph - N/A   Mostly Cloudy
3:00 PM 41.0 °F 33.5 °F 24.8 °F 53% 29.92 in 30.0 mi SSW 13.8 mph - N/A   Scattered Clouds
4:00 PM 41.0 °F 34.7 °F 26.6 °F 57% 29.92 in 30.0 mi SSW 10.4 mph - N/A   Partly Cloudy
5:00 PM -27 °F - -33 °F 58% 29.86 in - South 13.8 mph - -  
5:00 PM 37.4 °F 31.4 °F 26.6 °F 65% 29.92 in 30.0 mi SSW 8.1 mph - N/A   Partly Cloudy
6:00 PM 32.0 °F 24.8 °F 26.6 °F 80% 29.94 in 30.0 mi South 8.1 mph - N/A   Partly Cloudy
7:00 PM 30.2 °F 23.4 °F 26.6 °F 86% 29.94 in 15.0 mi SW 6.9 mph - N/A   Partly Cloudy
8:00 PM 30.2 °F 23.4 °F 24.8 °F 80% 29.94 in 15.0 mi SSW 6.9 mph - N/A   Clear
9:00 PM 30.2 °F 22.6 °F 24.8 °F 80% 29.94 in 9.0 mi SSW 8.1 mph - N/A   Clear
10:00 PM 28.4 °F 19.7 °F 24.8 °F 86% 29.94 in 9.0 mi SSW 9.2 mph - N/A   Clear
11:00 PM -28 °F - -34 °F 59% 29.87 in - South 11.5 mph - -  
11:00 PM 28.4 °F 19.1 °F 24.8 °F 86% 29.94 in 9.0 mi SW 10.4 mph - N/A   Clear